Date String (YYYY-MM-DD hh:mm:ss) UTC,Instrument flags,absolute air pressure of the measurement (hPa),sample flow rate (lpm),inlet stack bypass flow (lpm),air temperature of the measurement (°C),ambient temperature measured by the external sensor (°C),aerosol sample conditioner tube jacket temperature (°C),OPC LED temperature (°C),internal box temperature (°C),relative humidity of the measurement (%),span deviation,mass concentration of particles derived from Lorenz-Mie calculation of OPC scattering (μg/m³),mass concentration of particles derived from Lorenz-Mie calculation of OPC scattering (μg/m³),mass concentration of particles derived from Lorenz-Mie calculation of OPC scattering (μg/m³)
DateTimeUTC,F1_M11,P_M11,Q1_M11,Q2_M11,T1_M11,T2_M11,T3_M11,T4_M11,T5_M11,U1_M11,ZSPAN_M11,X0_M11,X2_M11,X1_M11
2023-06-20 11:00:00,SystemResetWarning,0826.9,5.01,000.00,030.1,028.5,000.0,038.6,031.6,16.8,0000.0,0010.16,0004.35,0003.50
2023-06-20 11:01:00,SystemResetWarning,0826.9,5.00,000.00,030.1,028.5,000.0,038.6,031.6,16.9,0000.0,0010.13,0004.33,0003.49
2023-06-20 11:02:00,SystemResetWarning,0826.9,5.00,000.00,030.1,028.5,000.0,038.6,031.6,17.1,0000.0,0009.90,0004.35,0003.49
2023-06-20 11:03:00,SystemResetWarning,0826.9,4.99,000.00,030.1,028.5,000.0,038.6,031.7,17.3,0000.0,0009.23,0004.37,0003.50
2023-06-20 11:04:00,SystemResetWarning,0826.9,4.99,000.00,030.1,028.5,000.0,038.6,031.7,17.1,0000.0,0008.62,0004.37,0003.51
2023-06-20 11:05:00,SystemResetWarning,0827.0,4.99,000.00,030.1,028.6,000.0,038.6,031.7,16.6,0000.0,0008.39,0004.35,0003.52
2023-06-20 11:06:00,SystemResetWarning,0826.9,5.01,000.00,030.2,028.6,000.0,038.7,031.7,16.5,0000.0,0008.35,0004.33,0003.53
2023-06-20 11:07:00,SystemResetWarning,0826.9,5.01,000.00,030.2,028.6,000.0,038.7,031.7,15.9,0000.0,0008.96,0004.34,0003.54
2023-06-20 11:08:00,SystemResetWarning,0826.9,5.00,000.00,030.2,028.6,000.0,038.7,031.7,16.1,0000.0,0010.25,0004.39,0003.55
2023-06-20 11:09:00,SystemResetWarning,0826.9,5.00,000.00,030.2,028.6,000.0,038.7,031.7,16.1,0000.0,0010.87,0004.41,0003.56
2023-06-20 11:10:00,SystemResetWarning,0826.9,5.00,000.00,030.2,028.6,000.0,038.7,031.7,15.9,0000.0,0011.22,0004.46,0003.57
2023-06-20 11:11:00,SystemResetWarning,0826.9,5.00,000.00,030.2,028.6,000.0,038.7,031.7,15.7,0000.0,0011.38,0004.49,0003.59
2023-06-20 11:12:00,SystemResetWarning,0827.0,5.00,000.00,030.2,028.6,000.0,038.7,031.7,15.8,0000.0,0011.28,0004.45,0003.59
2023-06-20 11:13:00,SystemResetWarning,0826.9,5.00,000.00,030.2,028.6,000.0,038.7,031.7,16.3,0000.0,0011.71,0004.41,0003.58
2023-06-20 11:14:00,SystemResetWarning,0827.0,5.00,000.00,030.2,028.6,000.0,038.7,031.8,16.1,0000.0,0011.91,0004.41,0003.56
2023-06-20 11:15:00,SystemResetWarning,0827.0,4.99,000.00,030.2,028.6,000.0,038.7,031.7,15.7,0000.0,0011.75,0004.40,0003.56
2023-06-20 11:16:00,SystemResetWarning,0827.1,5.00,000.00,030.2,028.6,000.0,038.8,031.7,15.4,0000.0,0011.88,0004.40,0003.55
2023-06-20 11:17:00,SystemResetWarning,0827.1,5.00,000.00,030.3,028.6,000.0,038.8,031.7,15.2,0000.0,0011.78,0004.39,0003.54
2023-06-20 11:18:00,SystemResetWarning,0827.1,5.00,000.00,030.3,028.6,000.0,038.8,031.7,15.0,0000.0,0011.39,0004.39,0003.52
2023-06-20 11:19:00,SystemResetWarning,0827.1,5.00,000.00,030.3,028.6,000.0,038.8,031.7,15.7,0000.0,0010.03,0004.35,0003.50
2023-06-20 11:20:00,SystemResetWarning,0827.1,5.00,000.00,030.3,028.7,000.0,038.8,031.8,16.7,0000.0,0009.80,0004.30,0003.49
2023-06-20 11:21:00,SystemResetWarning,0827.1,5.00,000.00,030.3,028.7,000.0,038.8,031.8,17.0,0000.0,0010.92,0004.26,0003.48
2023-06-20 11:22:00,SystemResetWarning,0827.2,5.00,000.00,030.3,028.7,000.0,038.8,031.8,17.8,0000.0,0011.42,0004.27,0003.50
2023-06-20 11:23:00,SystemResetWarning,0827.2,5.00,000.00,030.3,028.7,000.0,038.8,031.8,18.0,0000.0,0011.67,0004.33,0003.51
2023-06-20 11:24:00,SystemResetWarning,0827.1,5.00,000.00,030.3,028.7,000.0,038.8,031.8,17.7,0000.0,0011.25,0004.37,0003.52
2023-06-20 11:25:00,SystemResetWarning,0827.2,5.00,000.00,030.3,028.7,000.0,038.9,031.8,17.0,0000.0,0011.98,0004.38,0003.55
2023-06-20 11:26:00,SystemResetWarning,0827.1,5.00,000.00,030.4,028.8,000.0,038.9,031.8,16.5,0000.0,0013.11,0004.39,0003.55
2023-06-20 11:27:00,SystemResetWarning,0827.2,5.00,000.00,030.4,028.8,000.0,038.9,031.8,16.7,0000.0,0013.31,0004.39,0003.55
2023-06-20 11:28:00,SystemResetWarning,0827.1,5.00,000.00,030.4,028.8,000.0,038.9,031.9,17.3,0000.0,0013.35,0004.41,0003.57
2023-06-20 11:29:00,SystemResetWarning,0827.2,5.00,000.00,030.4,028.7,000.0,038.9,031.9,17.4,0000.0,0013.12,0004.40,0003.58
2023-06-20 11:30:00,SystemResetWarning,0827.2,5.00,000.00,030.4,026.5,000.0,038.8,031.8,17.4,0000.0,0013.74,0004.46,0003.62
2023-06-20 11:31:00,SystemResetWarning,0827.2,5.01,000.00,030.3,024.9,000.0,038.8,031.7,17.2,0000.0,0013.66,0004.53,0003.64
2023-06-20 11:32:00,SystemResetWarning,0827.1,5.01,000.00,030.2,024.9,000.0,038.7,031.4,16.9,0000.0,0012.40,0004.55,0003.66
2023-06-20 11:33:00,SystemResetWarning,0827.2,4.99,000.00,030.1,025.2,000.0,038.7,031.1,17.3,0000.0,0011.99,0004.60,0003.66
2023-06-20 11:34:00,SystemResetWarning,0827.1,5.00,000.00,030.0,025.7,000.0,038.7,031.2,17.6,0000.0,0011.91,0004.59,0003.65
2023-06-20 11:35:00,SystemResetWarning,0827.2,5.00,000.00,030.0,026.2,000.0,038.7,031.2,18.2,0000.0,0012.03,0004.60,0003.64
2023-06-20 11:36:00,SystemResetWarning,0827.2,5.00,000.00,029.9,026.6,000.0,038.6,031.2,18.1,0000.0,0011.76,0004.60,0003.62
2023-06-20 11:37:00,SystemResetWarning,0827.2,5.00,000.00,029.9,026.9,000.0,038.6,031.2,17.8,0000.0,0010.89,0004.61,0003.62
2023-06-20 11:38:00,SystemResetWarning,0827.2,5.00,000.00,029.9,027.2,000.0,038.6,031.3,17.4,0000.0,0010.84,0004.66,0003.64
2023-06-20 11:39:00,SystemResetWarning,0827.3,5.01,000.00,029.9,027.4,000.0,038.6,031.3,16.6,0000.0,0011.25,0004.65,0003.64
2023-06-20 11:40:00,SystemResetWarning,0827.3,5.00,000.00,029.9,027.6,000.0,038.6,031.3,16.2,0000.0,0011.73,0004.65,0003.65
2023-06-20 11:41:00,SystemResetWarning,0827.3,4.99,000.00,029.9,027.8,000.0,038.6,031.4,15.8,0000.0,0011.56,0004.64,0003.63
2023-06-20 11:42:00,SystemResetWarning,0827.2,5.00,000.00,029.9,027.9,000.0,038.6,031.4,15.4,0000.0,0011.72,0004.64,0003.62
2023-06-20 11:43:00,SystemResetWarning,0827.2,5.00,000.00,029.9,028.0,000.0,038.6,031.4,14.9,0000.0,0012.19,0004.60,0003.60
2023-06-20 11:44:00,SystemResetWarning,0827.2,5.00,000.00,029.9,028.1,000.0,038.6,031.4,14.7,0000.0,0012.42,0004.54,0003.58
2023-06-20 11:45:00,SystemResetWarning,0827.2,5.00,000.00,030.0,028.2,000.0,038.6,031.4,14.6,0000.0,0012.74,0004.51,0003.56
2023-06-20 11:46:00,SystemResetWarning,0827.2,5.00,000.00,030.0,028.2,000.0,038.6,031.4,14.6,0000.0,0012.50,0004.43,0003.55
2023-06-20 11:47:00,SystemResetWarning,0827.3,5.00,000.00,030.0,028.3,000.0,038.6,031.4,14.5,0000.0,0012.19,0004.37,0003.53
2023-06-20 11:48:00,SystemResetWarning,0827.3,5.00,000.00,030.0,028.3,000.0,038.6,031.5,14.7,0000.0,0011.88,0004.35,0003.51
2023-06-20 11:49:00,SystemResetWarning,0827.3,5.00,000.00,030.0,028.3,000.0,038.6,031.5,14.6,0000.0,0012.12,0004.28,0003.47
2023-06-20 11:50:00,SystemResetWarning,0827.3,5.00,000.00,030.0,028.4,000.0,038.6,031.5,14.3,0000.0,0012.44,0004.27,0003.45
2023-06-20 11:51:00,SystemResetWarning,0827.3,5.00,000.00,030.0,028.4,000.0,038.6,031.5,14.1,0000.0,0012.18,0004.27,0003.41
2023-06-20 11:52:00,SystemResetWarning,0827.3,5.00,000.00,030.0,028.4,000.0,038.6,031.5,14.0,0000.0,0011.93,0004.23,0003.39
2023-06-20 11:53:00,SystemResetWarning,0827.3,5.00,000.00,030.1,028.4,000.0,038.6,031.5,14.2,0000.0,0011.42,0004.17,0003.38
2023-06-20 11:54:00,SystemResetWarning,0827.3,5.00,000.00,030.1,028.4,000.0,038.6,031.5,14.3,0000.0,0011.52,0004.12,0003.35
2023-06-20 11:55:00,SystemResetWarning,0827.3,5.00,000.00,030.1,028.5,000.0,038.6,031.5,14.1,0000.0,0011.14,0004.10,0003.35
2023-06-20 11:56:00,SystemResetWarning,0827.3,5.00,000.00,030.1,028.5,000.0,038.6,031.6,14.0,0000.0,0010.83,0004.08,0003.35
2023-06-20 11:57:00,SystemResetWarning,0827.4,4.99,000.00,030.1,028.5,000.0,038.6,031.6,14.1,0000.0,0010.89,0004.08,0003.33
2023-06-20 11:58:00,SystemResetWarning,0827.4,5.01,000.00,030.1,028.5,000.0,038.7,031.6,14.3,0000.0,0010.63,0004.06,0003.33
2023-06-20 11:59:00,SystemResetWarning,0827.4,5.01,000.00,030.1,028.5,000.0,038.7,031.6,14.6,0000.0,0011.57,0004.03,0003.31
